Location: Arcusa
(42.3167°N, 0.0833°W)
Time: 17:43:38
(UTC+00:00)

Lacrosse 5 rocket - Pass Details

Date: 25 January 2020
Orbit: 465 x 632 km, 57.0° (Epoch: 19 February)

Event Time Altitude Azimuth Distance (km) Brightness Sun altitude
Exits shadow 04:33:21 11° 19° (NNE) 1,957 4.3 -30.9°
Drops below altitude 10° 04:33:31 10° 21° (NNE) 1,982 4.4 -30.8°
Sets 04:37:08 0° 51° (NE) 2,874 5.7 -30.2°
